Flag for U.S.A. Weather past 2 weeks in Augusta, Georgia, U.S.A.

Now
54 °F

Clear.


Feels Like: 54 °F
Forecast: 49 / 73 °F
Wind: No wind

Location: Daniel Field

Current Time: Oct 24, 2014 at 4:00:12 AM

Latest Report: Oct 24, 2014 at 2:53 AM


Visibility: 10 mi

Pressure: 30.02 "Hg

Humidity: 74%

Dew point: 46 °F

Location of AugustaLocation

Historic Weather in Augusta — Graph

°F

Augusta temperature yesterday

Maximum temperature yesterday: 72 °F (at 4:53 PM)
Minimum temperature yesterday: 47 °F (at 7:53 AM)
Average temperature yesterday: 59 °F

Past Weeks' High & Low Weather Summary

 TemperatureHumidityPressure
High90 °F (Oct 11, 4:53 PM)96% (Oct 14, 2:53 AM)30.18 "Hg (Oct 14, 2:53 AM)
Low47 °F (Oct 23, 7:53 AM)27% (Oct 21, 1:53 PM)29.81 "Hg (Oct 14, 4:53 PM)
Average69 °F64%30.00 "Hg
* Reported Oct 9 2:53 AM — Oct 24 2:53 AM, Augusta, Weather by CustomWeather, © 2014

Note: Actual official high and low records may vary slightly from our data, if they occured in-between our weather recording intervals... More about our weather records

Advertising

Augusta weather history for previous 24 hours

 ConditionsComfort  
Time TempWeatherWind HumidityBarometerVisibility
2:53 AM
Oct 24
54 °FClear.No wind74%30.02 "Hg10 mi
1:53 AM56 °FClear.No wind67%30.03 "Hg10 mi
12:53 AM58 °FClear.No wind60%30.03 "Hg10 mi
11:53 PM
Oct 23
59 °FClear.No wind60%30.04 "Hg10 mi
10:53 PM60 °FClear.3 mph56%30.05 "Hg10 mi
9:53 PM61 °FClear.No wind56%30.05 "Hg10 mi
8:53 PM63 °FClear.3 mph50%30.03 "Hg10 mi
7:53 PM64 °FClear.5 mph47%30.03 "Hg10 mi
6:53 PM64 °FSunny.3 mph49%30.01 "Hg10 mi
5:53 PM71 °FSunny.5 mph32%30.01 "Hg10 mi
4:53 PM72 °FSunny.8 mph29%30.00 "Hg10 mi
3:53 PM71 °FSunny.6 mph29%30.01 "Hg10 mi
2:53 PM70 °FSunny.9 mph29%30.01 "Hg10 mi
1:53 PM67 °FSunny.No wind36%30.04 "Hg10 mi
12:53 PM65 °FSunny.6 mph37%30.08 "Hg10 mi
11:53 AM63 °FSunny.No wind41%30.11 "Hg10 mi
10:53 AM59 °FSunny.7 mph49%30.13 "Hg10 mi
9:53 AM55 °FSunny.8 mph59%30.13 "Hg10 mi
8:53 AM50 °FSunny.7 mph68%30.12 "Hg10 mi
7:53 AM47 °FClear.9 mph77%30.10 "Hg10 mi
6:53 AM48 °FClear.8 mph74%30.09 "Hg10 mi
5:53 AM48 °FClear.7 mph74%30.09 "Hg10 mi
4:53 AM49 °FClear.5 mph71%30.09 "Hg10 mi
Weather by CustomWeather, © 2014

See weather overviewHow to use our weather pages